When you browse on this site, cookies collect data to enhance your experience and personalize the content and advertising you see.
Visit our Privacy Policy to learn more. By continuing to use the site, you agree to this use of cookies and data.
  • In Hungary
  • List of Countries
  • For 7 days
  • Water Temperature
  • Satellite Maps
  • Weather Map
  • News
  • Weather Widgets
  • user-avatar
    Login

    Hourly Weather Paterna

    Today, 21 January, Monday

    Time Temperature Precipitation Wind Pressure Humidity
    00:00 +5°C° 0 mm 3 mps 757 mmHg 72%
    01:00 +5°C° 0 mm 3 mps 757 mmHg 72%
    02:00 +5°C° 0 mm 3 mps 757 mmHg 72%
    03:00 +5°C° 0 mm 3 mps 757 mmHg 72%
    04:00 +4°C° 0 mm 3 mps 757 mmHg 73%
    05:00 +4°C° 0 mm 3 mps 758 mmHg 73%
    06:00 +4°C° 0 mm 3 mps 758 mmHg 73%
    07:00 +5°C° 0 mm 3 mps 758 mmHg 70%
    08:00 +7°C° 0 mm 3 mps 758 mmHg 66%
    09:00 +8°C° 0 mm 3 mps 758 mmHg 62%
    10:00 +10°C° 0 mm 3 mps 758 mmHg 54%
    11:00 +12°C° 0 mm 3 mps 758 mmHg 47%
    12:00 +13°C° 0 mm 3 mps 758 mmHg 39%
    13:00 +13°C° 0 mm 3 mps 758 mmHg 39%
    14:00 +13°C° 0 mm 3 mps 758 mmHg 38%
    15:00 +13°C° 0 mm 4 mps 758 mmHg 38%
    16:00 +12°C° 0 mm 3 mps 758 mmHg 42%
    17:00 +10°C° 0 mm 3 mps 758 mmHg 46%
    18:00 +8°C° 0 mm 3 mps 759 mmHg 50%
    19:00 +7°C° 0 mm 3 mps 759 mmHg 53%
    20:00 +6°C° 0 mm 4 mps 759 mmHg 55%
    21:00 +5°C° 0 mm 4 mps 760 mmHg 57%
    22:00 +4°C° 0 mm 4 mps 760 mmHg 59%
    23:00 +4°C° 0 mm 4 mps 760 mmHg 61%

    Tomorrow, 22 January, Tuesday

    Time Temperature Precipitation Wind Pressure Humidity
    00:00 +3°C° 0 mm 4 mps 760 mmHg 63%
    01:00 +3°C° 0 mm 4 mps 760 mmHg 63%
    02:00 +1°C° 0 mm 4 mps 759 mmHg 64%
    03:00 +1°C° 0 mm 4 mps 759 mmHg 64%
    04:00 +1°C° 0 mm 4 mps 759 mmHg 63%
    05:00 +1°C° 0 mm 4 mps 759 mmHg 62%
    06:00 0°C° 0 mm 4 mps 759 mmHg 61%
    07:00 +3°C° 0 mm 4 mps 758 mmHg 58%
    08:00 +4°C° 0 mm 4 mps 758 mmHg 54%
    09:00 +6°C° 0 mm 4 mps 758 mmHg 50%
    10:00 +8°C° 0 mm 4 mps 757 mmHg 45%
    11:00 +10°C° 0 mm 5 mps 756 mmHg 41%
    12:00 +13°C° 0 mm 5 mps 756 mmHg 36%
    13:00 +13°C° 0 mm 6 mps 755 mmHg 37%
    14:00 +14°C° 0 mm 6 mps 754 mmHg 37%
    15:00 +14°C° 0 mm 7 mps 753 mmHg 37%
    16:00 +12°C° 0.1 mm 7 mps 753 mmHg 44%
    17:00 +11°C° 0.1 mm 7 mps 753 mmHg 51%
    18:00 +9°C° 0.1 mm 7 mps 753 mmHg 57%
    19:00 +9°C° 0.1 mm 6 mps 753 mmHg 60%
    20:00 +8°C° 0.1 mm 5 mps 753 mmHg 62%
    21:00 +8°C° 0.1 mm 4 mps 753 mmHg 65%
    22:00 +7°C° 0 mm 4 mps 753 mmHg 62%
    23:00 +7°C° 0 mm 5 mps 753 mmHg 59%

    Day after tomorrow, 23 January, Wednesday

    Time Temperature Precipitation Wind Pressure Humidity
    00:00 +7°C° 0 mm 6 mps 752 mmHg 55%
    01:00 +7°C° 0 mm 6 mps 752 mmHg 57%
    02:00 +5°C° 0 mm 7 mps 752 mmHg 58%
    03:00 +5°C° 0 mm 8 mps 752 mmHg 59%
    04:00 +5°C° 0 mm 7 mps 752 mmHg 59%
    05:00 +5°C° 0 mm 7 mps 751 mmHg 59%
    06:00 +6°C° 0 mm 7 mps 751 mmHg 59%
    07:00 +7°C° 0 mm 9 mps 750 mmHg 56%
    08:00 +8°C° 0 mm 12 mps 750 mmHg 53%
    09:00 +9°C° 0 mm 14 mps 749 mmHg 50%
    10:00 +12°C° 0 mm 14 mps 748 mmHg 45%
    11:00 +14°C° 0 mm 15 mps 748 mmHg 41%
    12:00 +17°C° 0 mm 15 mps 747 mmHg 37%
    13:00 +17°C° 0 mm 14 mps 747 mmHg 38%
    14:00 +18°C° 0 mm 13 mps 747 mmHg 38%
    15:00 +18°C° 0 mm 12 mps 746 mmHg 38%
    16:00 +16°C° 0 mm 10 mps 746 mmHg 41%
    17:00 +13°C° 0 mm 8 mps 747 mmHg 44%
    18:00 +13°C° 0 mm 6 mps 747 mmHg 47%
    19:00 +12°C° 0 mm 5 mps 748 mmHg 48%
    20:00 +10°C° 0 mm 5 mps 748 mmHg 49%
    21:00 +10°C° 0 mm 4 mps 749 mmHg 49%
    22:00 +8°C° 0 mm 4 mps 750 mmHg 51%
    23:00 +8°C° 0 mm 4 mps 750 mmHg 52%

    24 January, Thursday

    Time Temperature Precipitation Wind Pressure Humidity
    00:00 +7°C° 0 mm 4 mps 750 mmHg 53%
    01:00 +7°C° 0 mm 4 mps 750 mmHg 52%
    02:00 +7°C° 0 mm 5 mps 751 mmHg 52%
    03:00 +6°C° 0 mm 5 mps 751 mmHg 51%
    04:00 +6°C° 0 mm 5 mps 750 mmHg 54%
    05:00 +6°C° 0 mm 5 mps 750 mmHg 56%
    06:00 +5°C° 0 mm 4 mps 750 mmHg 59%
    07:00 +6°C° 0 mm 5 mps 751 mmHg 55%
    08:00 +7°C° 0 mm 5 mps 751 mmHg 50%
    09:00 +8°C° 0 mm 5 mps 751 mmHg 46%
    10:00 +9°C° 0 mm 8 mps 752 mmHg 38%
    11:00 +8°C° 0 mm 11 mps 752 mmHg 29%
    12:00 +9°C° 0 mm 14 mps 752 mmHg 20%
    13:00 +9°C° 0 mm 13 mps 753 mmHg 20%
    14:00 +9°C° 0 mm 12 mps 753 mmHg 21%
    15:00 +8°C° 0 mm 11 mps 753 mmHg 22%
    16:00 +7°C° 0 mm 9 mps 753 mmHg 25%
    17:00 +5°C° 0 mm 8 mps 754 mmHg 28%
    18:00 +4°C° 0 mm 6 mps 754 mmHg 32%
    19:00 +3°C° 0 mm 5 mps 755 mmHg 35%
    20:00 +2°C° 0 mm 5 mps 756 mmHg 39%
    21:00 +3°C° 0 mm 4 mps 757 mmHg 43%
    22:00 +1°C° 0 mm 4 mps 757 mmHg 45%
    23:00 +1°C° 0 mm 4 mps 757 mmHg 46%

    25 January, Friday

    Time Temperature Precipitation Wind Pressure Humidity
    00:00 +1°C° 0 mm 4 mps 758 mmHg 48%
    01:00 0°C° 0 mm 4 mps 758 mmHg 49%
    02:00 0°C° 0 mm 4 mps 758 mmHg 50%
    03:00 0°C° 0 mm 4 mps 758 mmHg 52%
    04:00 +1°C° 0 mm 3 mps 758 mmHg 53%
    05:00 +1°C° 0 mm 3 mps 758 mmHg 54%
    06:00 0°C° 0 mm 3 mps 758 mmHg 56%
    07:00 +2°C° 0 mm 3 mps 758 mmHg 52%
    08:00 +3°C° 0 mm 3 mps 759 mmHg 48%
    09:00 +5°C° 0 mm 3 mps 759 mmHg 45%
    10:00 +8°C° 0 mm 2 mps 759 mmHg 40%
    11:00 +10°C° 0 mm 2 mps 759 mmHg 34%
    12:00 +13°C° 0 mm 1 mps 759 mmHg 29%
    13:00 +14°C° 0 mm 2 mps 758 mmHg 31%
    14:00 +14°C° 0 mm 2 mps 758 mmHg 32%
    15:00 +15°C° 0 mm 2 mps 758 mmHg 34%
    16:00 +13°C° 0 mm 2 mps 758 mmHg 38%
    17:00 +10°C° 0 mm 2 mps 758 mmHg 42%
    18:00 +9°C° 0 mm 1 mps 759 mmHg 47%
    19:00 +8°C° 0 mm 2 mps 759 mmHg 53%
    20:00 +8°C° 0 mm 2 mps 760 mmHg 59%
    21:00 +7°C° 0 mm 2 mps 760 mmHg 65%
    22:00 +7°C° 0 mm 3 mps 760 mmHg 68%
    23:00 +7°C° 0 mm 3 mps 760 mmHg 71%

    26 January, Saturday

    Time Temperature Precipitation Wind Pressure Humidity
    00:00 +7°C° 0 mm 3 mps 760 mmHg 75%
    01:00 +7°C° 0 mm 3 mps 760 mmHg 75%
    02:00 +7°C° 0 mm 3 mps 760 mmHg 76%
    03:00 +7°C° 0 mm 3 mps 760 mmHg 77%
    04:00 +5°C° 0 mm 3 mps 760 mmHg 77%
    05:00 +5°C° 0 mm 3 mps 760 mmHg 77%
    06:00 +5°C° 0 mm 3 mps 760 mmHg 77%
    07:00 +7°C° 0 mm 3 mps 760 mmHg 72%
    08:00 +9°C° 0 mm 3 mps 761 mmHg 68%
    09:00 +10°C° 0 mm 3 mps 761 mmHg 63%
    10:00 +12°C° 0 mm 3 mps 760 mmHg 55%
    11:00 +14°C° 0 mm 3 mps 760 mmHg 48%
    12:00 +17°C° 0 mm 3 mps 759 mmHg 40%
    13:00 +18°C° 0 mm 3 mps 758 mmHg 37%
    14:00 +19°C° 0 mm 3 mps 758 mmHg 34%
    15:00 +20°C° 0 mm 3 mps 757 mmHg 31%
    16:00 +18°C° 0 mm 4 mps 757 mmHg 36%
    17:00 +15°C° 0 mm 4 mps 757 mmHg 42%
    18:00 +13°C° 0 mm 5 mps 757 mmHg 48%
    19:00 +12°C° 0 mm 5 mps 757 mmHg 50%
    20:00 +12°C° 0 mm 5 mps 757 mmHg 52%
    21:00 +10°C° 0 mm 5 mps 757 mmHg 54%
    22:00 +9°C° 0 mm 5 mps 757 mmHg 56%
    23:00 +10°C° 0 mm 4 mps 757 mmHg 59%
    Show more